Location: Igri�s
(42.2144°N, 0.4320°W)
Time: 17:15:15
(UTC+00:00)

Cosmos 2322 Rocket - Pass Details

Date: 13 August 2020
Orbit: 831 x 852 km, 71.0° (Epoch: 18 September)

Event Time Altitude Azimuth Distance (km) Brightness Sun altitude
Rises 20:42:05 0° 343° (NNW) 3,420 6.3 -16.5°
Reaches altitude 10° 20:44:50 10° 353° (N) 2,483 5.3 -16.9°
Maximum altitude 20:49:52 31° 55° (NE) 1,449 3.3 -17.7°
Enters shadow 20:52:08 24° 94° (E) 1,710 3.3 -18.0°
